Location: Courçay
(47.2523°N, 0.8761°E)
Time: 02:41:57
(UTC+00:00)

UNK - Pass Details

Date: 18 November 2025
Orbit: 655 x 672 km, 98.4° (Epoch: 04 December)

Event Time Altitude Azimuth Distance (km) Brightness Sun altitude
Rises 16:59:36 0° 16° (NNE) 3,034 6.7 -7.3°
Reaches altitude 10° 17:01:52 10° 20° (NNE) 2,115 5.9 -7.6°
Maximum altitude 17:06:28 65° 102° (ESE) 745 3.8 -8.4°
Drops below altitude 10° 17:11:01 10° 184° (S) 2,096 6.6 -9.1°
Sets 17:13:15 0° 188° (S) 3,003 7.5 -9.5°
